Location: Central Falls
(41.8900°N, 71.3929°W)
Time: 07:58:04
(UTC+00:00)

Altair - Pass Details

Date: 06 December 2023
Orbit: 1501 x 1682 km, 47.2° (Epoch: 29 February)

Event Time Altitude Azimuth Distance (km) Brightness Sun altitude
Rises 18:49:26 0° 297° (WNW) 4,702 10.1 18.6°
Reaches altitude 10° 18:52:33 10° 293° (WNW) 3,698 9.7 18.3°
Maximum altitude 19:01:35 59° 217° (SW) 1,700 8.7 17.4°
Drops below altitude 10° 19:10:29 10° 141° (SE) 3,645 9.7 16.4°
Sets 19:13:32 0° 138° (SE) 4,631 10.2 16.1°
